Location: DaVinci Observatory
(43.1080°N, 78.6453°W)
Time: 15:36:46
(UTC-05:00)

Vanguard 1 - Visible Passes

Search period start: 18 December 2017 00:00
Search period end: 28 December 2017 00:00
Orbit: 650 x 3834 km, 34.2° (Epoch: 18 December)

Date Brightness Start Highest point End Pass type
(mag) Time Alt. Az. Time Alt. Az. Time Alt. Az.
18 Dec 14.4 05:01:13 10° S 05:16:35 23° SE 05:31:19 10° E visible
19 Dec 14.2 05:19:43 10° S 05:37:18 30° SE 05:53:58 10° E visible
20 Dec 14.5 03:30:47 10° SE 03:35:42 11° SE 03:40:43 10° ESE visible
20 Dec 14.1 05:38:58 10° SSW 05:58:06 36° SE 06:16:02 10° E visible
21 Dec 14.3 03:44:32 10° SSE 03:56:05 17° SE 04:08:11 10° E visible
21 Dec 13.9 05:58:43 10° SSW 06:19:00 43° SSE 06:37:44 10° E visible
22 Dec 14.1 04:01:54 10° S 04:16:31 23° SE 04:32:03 10° E visible
22 Dec 13.7 06:18:52 10° SW 06:40:01 49° SSE 06:59:14 10° E visible
23 Dec 14.0 04:20:30 10° S 04:37:02 30° SE 04:54:47 10° E visible
23 Dec 13.6 06:39:21 10° SW 07:01:09 55° SSE 07:20:35 10° E visible
24 Dec 14.2 02:33:08 10° SE 02:36:08 10° ESE 02:39:14 10° ESE visible
24 Dec 13.8 04:39:48 10° SSW 04:57:40 37° SE 05:16:56 10° E visible
24 Dec 13.5 07:00:06 10° SW 07:22:24 60° SSE 07:41:51 10° E visible
25 Dec 14.0 02:46:05 10° SSE 02:56:18 16° SE 03:07:47 10° E visible
25 Dec 13.7 04:59:36 10° SSW 05:18:26 43° SE 05:38:44 10° E visible
26 Dec 13.9 03:03:31 10° S 03:16:33 23° SE 03:31:50 10° E visible
26 Dec 13.5 05:19:45 10° SW 05:39:21 50° SSE 06:00:20 10° E visible
27 Dec 13.7 03:22:10 10° S 03:36:53 29° SE 03:54:42 10° E visible
27 Dec 13.4 05:40:12 10° SW 06:00:25 56° SSE 06:21:48 10° E visible
